Weather History for Uvalde, TX

Change the Weather History Date:

Monday, February 18, 2013

  Actual Average (KHDO) Record (KHDO)
Temperature  
Mean Temperature 52 °F -  
Max Temperature 81 °F 66 °F 89 °F (2000)
Min Temperature 24 °F 43 °F 28 °F (2007)
Degree Days  
Heating Degree Days 12    
Growing Degree Days 2 (Base 50)    
Moisture  
Dew Point 37 °F    
Average Humidity 48    
Maximum Humidity 87    
Minimum Humidity 6    
Precipitation  
Precipitation 0.00 in - - ()
Sea Level Pressure  
Sea Level Pressure 29.94 in    
Wind  
Wind Speed 9 mph (SSW)    
Max Wind Speed 18 mph    
Max Gust Speed 29 mph    
Visibility 10 miles    
Events      
Averages and records for this station are not official NWS values.
T = Trace of Precipitation, MM = Missing Value Source: NWS Daily Summary

Daily Weather History Graph

Daily Weather History Graph

Search for Another Location

Airport:

Trip Planner

Search our weather history database for the weather conditions in past years. The results will help you decide how hot, cold, wet, or windy it might be!

Date:

Astronomy

Feb. 18, 2013 Rise Set
Actual Time 7:14 AM CST 6:31 PM CST
Civil Twilight 6:50 AM CST 6:55 PM CST
Nautical Twilight 6:23 AM CST 7:23 PM CST
Astronomical Twilight 5:55 AM CST 7:50 PM CST
Moon 12:31 PM CST (2/18) 1:43 AM CST (2/18)
Length of Visible Light 12h 04m
Length of Day
11h 16m
First Quarter, 58% of the Moon is Illuminated
Feb 18
First Quarter
Feb 25
Full
Mar 4
Last Quarter
Mar 11
New
Mar 19
First Quarter

Hourly Weather History & Observations

Time (CST) Temp. Windchill Dew Point Humidity Pressure Visibility Wind Dir Wind Speed Gust Speed Precip Events Conditions
12:15 AM 60.3 °F - 50.7 °F 71% 29.96 in 10.0 mi SE 15.0 mph - N/A   Overcast
12:35 AM 60.3 °F - 51.3 °F 72% 29.95 in 10.0 mi SE 12.7 mph 18.4 mph N/A   Overcast
12:55 AM 60.3 °F - 51.8 °F 74% 29.95 in 10.0 mi SE 10.4 mph - N/A   Overcast
1:15 AM 60.1 °F - 52.2 °F 75% 29.94 in 10.0 mi SE 11.5 mph - N/A   Overcast
1:35 AM 59.5 °F - 51.8 °F 76% 29.94 in 10.0 mi SE 9.2 mph - N/A   Overcast
1:55 AM 59.2 °F - 51.8 °F 77% 29.94 in 10.0 mi SE 9.2 mph - N/A   Overcast
2:35 AM 59.0 °F - 52.2 °F 78% 29.93 in 10.0 mi SE 9.2 mph - N/A   Overcast
2:55 AM 59.0 °F - 52.7 °F 80% 29.91 in 10.0 mi SSE 11.5 mph - N/A   Overcast
3:15 AM 59.0 °F - 53.1 °F 81% 29.91 in 10.0 mi SE 10.4 mph - N/A   Overcast
3:35 AM 59.0 °F - 53.6 °F 82% 29.91 in 10.0 mi SE 10.4 mph - N/A   Overcast
4:15 AM 60.1 °F - 55.2 °F 84% 29.90 in 10.0 mi SSE 10.4 mph - N/A   Overcast
4:35 AM 59.4 °F - 54.5 °F 84% 29.90 in 10.0 mi SE 8.1 mph - N/A   Overcast
4:55 AM 59.9 °F - 55.2 °F 84% 29.90 in 10.0 mi SE 9.2 mph - N/A   Overcast
5:15 AM 60.1 °F - 55.6 °F 85% 29.90 in 10.0 mi SE 8.1 mph - N/A   Overcast
5:35 AM 60.3 °F - 55.8 °F 85% 29.90 in 10.0 mi SE 8.1 mph - N/A   Overcast
5:55 AM 60.3 °F - 55.9 °F 86% 29.90 in 10.0 mi SE 8.1 mph - N/A   Overcast
6:15 AM 60.3 °F - 55.9 °F 86% 29.90 in 10.0 mi SE 9.2 mph - N/A   Overcast
6:35 AM 60.3 °F - 55.9 °F 86% 29.90 in 10.0 mi SE 8.1 mph - N/A   Overcast
6:55 AM 60.3 °F - 56.1 °F 86% 29.90 in 10.0 mi SSE 6.9 mph - N/A   Overcast
7:15 AM 60.3 °F - 56.3 °F 87% 29.91 in 10.0 mi SSE 6.9 mph - N/A   Overcast
7:35 AM 60.3 °F - 56.3 °F 87% 29.92 in 10.0 mi SSE 4.6 mph - N/A   Overcast
8:35 AM 61.0 °F - 56.8 °F 86% 29.94 in 10.0 mi SSE 6.9 mph - N/A   Overcast
8:55 AM 61.2 °F - 57.0 °F 86% 29.95 in 10.0 mi SSE 4.6 mph - N/A   Overcast
9:15 AM 61.7 °F - 57.2 °F 85% 29.96 in 10.0 mi SSE 6.9 mph - N/A   Overcast
9:35 AM 62.8 °F - 57.9 °F 84% 29.97 in 10.0 mi South 4.6 mph - N/A   Overcast
9:53 AM 24.8 °F 16.1 °F 5.0 °F 43% 30.25 in 10.0 mi West 8.1 mph - N/A   Scattered Clouds
9:55 AM 62.8 °F - 57.7 °F 84% 29.98 in 10.0 mi South 4.6 mph - N/A   Overcast
10:15 AM 64.8 °F - 59.0 °F 82% 29.98 in 10.0 mi SSW 5.8 mph - N/A   Overcast
10:35 AM 65.3 °F - 58.8 °F 80% 29.98 in 10.0 mi Calm Calm - N/A   Overcast
10:55 AM 68.0 °F - 59.2 °F 73% 29.98 in 10.0 mi South 5.8 mph - N/A   Overcast
11:15 AM 67.3 °F - 58.5 °F 73% 29.99 in 10.0 mi WSW 5.8 mph - N/A   Mostly Cloudy
11:35 AM 68.0 °F - 57.4 °F 69% 29.99 in 10.0 mi WSW 3.5 mph - N/A   Scattered Clouds
11:55 AM 69.3 °F - 56.7 °F 64% 29.97 in 10.0 mi Calm Calm - N/A   Scattered Clouds
12:15 PM 70.9 °F - 56.8 °F 61% 29.96 in 10.0 mi NW 3.5 mph - N/A   Scattered Clouds
12:35 PM 70.7 °F - 55.0 °F 58% 29.96 in 10.0 mi West 5.8 mph - N/A   Clear
12:55 PM 72.9 °F - 54.5 °F 52% 29.95 in 10.0 mi WSW 4.6 mph - N/A   Clear
1:15 PM 74.5 °F - 52.9 °F 47% 29.95 in 10.0 mi WNW 10.4 mph - N/A   Clear
1:35 PM 75.4 °F - 50.9 °F 42% 29.93 in 10.0 mi WNW 8.1 mph - N/A   Clear
1:55 PM 77.2 °F - 47.8 °F 35% 29.92 in 10.0 mi WNW 8.1 mph - N/A   Clear
2:15 PM 77.9 °F - 45.9 °F 32% 29.91 in 10.0 mi WNW 11.5 mph 16.1 mph N/A   Clear
2:35 PM 78.1 °F - 42.8 °F 28% 29.90 in 10.0 mi NW 11.5 mph 18.4 mph N/A   Clear
2:55 PM 80.6 °F - 38.7 °F 22% 29.89 in 10.0 mi WNW 10.4 mph - N/A   Clear
3:15 PM 80.6 °F - 34.0 °F 19% 29.88 in 10.0 mi West 18.4 mph 23.0 mph N/A   Clear
3:35 PM 81.5 °F - 21.6 °F 11% 29.88 in 10.0 mi WNW 18.4 mph 28.8 mph N/A   Clear
3:55 PM 81.7 °F - 17.2 °F 9% 29.87 in 10.0 mi NW 18.4 mph 23.0 mph N/A   Clear
4:15 PM 81.5 °F - 16.7 °F 9% 29.88 in 10.0 mi WNW 16.1 mph 26.5 mph N/A   Clear
4:35 PM 81.0 °F - 19.4 °F 10% 29.88 in 10.0 mi WNW 17.3 mph 23.0 mph N/A   Clear
4:55 PM 80.6 °F - 19.8 °F 10% 29.88 in 10.0 mi WNW 9.2 mph 20.7 mph N/A   Clear
5:15 PM 80.6 °F - 18.9 °F 10% 29.88 in 10.0 mi NW 11.5 mph 20.7 mph N/A   Clear
5:35 PM 80.4 °F - 17.6 °F 10% 29.88 in 10.0 mi NW 9.2 mph 17.3 mph N/A   Clear
5:55 PM 78.3 °F - 15.4 °F 9% 29.90 in 10.0 mi NNW 10.4 mph - N/A   Clear
6:15 PM 77.9 °F - 6.6 °F 6% 29.90 in 10.0 mi North 9.2 mph - N/A   Clear
6:35 PM 75.4 °F - 5.2 °F 7% 29.91 in 10.0 mi North 8.1 mph - N/A   Clear
6:55 PM 73.0 °F - 3.7 °F 7% 29.93 in 10.0 mi NNW 6.9 mph - N/A   Clear
7:15 PM 72.9 °F - 5.2 °F 7% 29.94 in 10.0 mi NNW 9.2 mph - N/A   Clear
7:35 PM 72.9 °F - 5.0 °F 7% 29.94 in 10.0 mi NNW 6.9 mph - N/A   Clear
7:55 PM 70.3 °F - 5.4 °F 8% 29.95 in 10.0 mi North 6.9 mph - N/A   Clear
8:15 PM 69.1 °F - 5.0 °F 8% 29.96 in 10.0 mi North 9.2 mph - N/A   Clear
8:35 PM 68.0 °F - 6.6 °F 9% 29.97 in 10.0 mi North 5.8 mph - N/A   Clear
8:55 PM 62.4 °F - 7.0 °F 11% 29.98 in 10.0 mi Calm Calm - N/A   Clear
9:15 PM 65.1 °F - 6.3 °F 10% 29.98 in 10.0 mi Calm Calm - N/A   Clear
9:35 PM 62.8 °F - 9.1 °F 12% 29.99 in 10.0 mi Calm Calm - N/A   Clear
9:55 PM 62.4 °F - 10.0 °F 13% 30.01 in 10.0 mi NNE 9.2 mph - N/A   Clear
10:15 PM 61.2 °F - 12.0 °F 15% 30.02 in 10.0 mi NE 11.5 mph - N/A   Clear
10:35 PM 60.8 °F - 15.4 °F 17% 30.02 in 10.0 mi NE 9.2 mph - N/A   Clear
10:55 PM 60.3 °F - 16.7 °F 18% 30.03 in 10.0 mi NNE 9.2 mph - N/A   Clear
11:15 PM 60.3 °F - 17.6 °F 19% 30.03 in 10.0 mi NE 8.1 mph - N/A   Clear
11:35 PM 60.3 °F - 18.5 °F 20% 30.03 in 10.0 mi NE 6.9 mph - N/A   Clear
11:55 PM 58.6 °F - 19.8 °F 22% 30.03 in 10.0 mi NNE 6.9 mph - N/A   Clear